{"data":{"norad_id":64027,"intl_designator":"2025-102F","name":"STARLINK-33967","alt_names":[],"object_type":"PAYLOAD","status":"ACTIVE","operator":null,"country":"US","launch_date":"2025-05-16","launch_site_code":"AFWTR","launch_vehicle":null,"mission":null,"orbit_class":"UNKNOWN","rcs_meters":null,"size_class":null,"mass_kg":null,"dimensions":null,"purposes":["comms"],"wikipedia_slug":null,"has_3d_model":false,"image_url":null,"decayed_at":null,"tle_current":{"epoch":"2026-09-20T22:12:34.476192Z","epoch_age_seconds":106939,"freshness":"FRESH","line1":"1 64027U 25102F   26263.92539903  .00007242  00000+0  25609-3 0  9997","line2":"2 64027  70.0009 339.9204 0003478 268.8678  91.2099 15.29584430 75197","mean_motion":15.2958443,"eccentricity":0.0003478,"inclination_deg":70.0009,"raan_deg":339.9204,"arg_perigee_deg":268.8678,"mean_anomaly_deg":91.2099,"bstar":0.00025609,"rev_number":7519,"period_min":94.143217710447,"perigee_km":474.66943154223,"apogee_km":479.43790217009,"semimajor_km":6855.1906668562,"source":"CELESTRAK","updated_at":"2026-09-21T09:00:35.186829Z"}}}